Location: Dal�� Lhota
(48.7500°N, 14.0167°E)
Time: 01:43:41
(UTC+00:00)

Cosmos 1766 - Pass Details

Date: 24 September 2020
Orbit: 521 x 544 km, 82.5° (Epoch: 29 October)

Event Time Altitude Azimuth Distance (km) Brightness Sun altitude
Rises 18:28:44 0° 176° (S) 2,664 6.6 -15.8°
Reaches altitude 10° 18:30:53 10° 172° (S) 1,783 5.7 -16.1°
Maximum altitude 18:34:42 54° 95° (E) 661 3.3 -16.7°
Drops below altitude 10° 18:38:35 10° 18° (NNE) 1,811 6.0 -17.3°
Sets 18:40:48 0° 14° (NNE) 2,711 6.9 -17.7°
